Weather History for KBJJ - January, 2013

Change the Weather History Date:

Monday, January 7, 2013

  Actual Average Record
Temperature  
Mean Temperature 28 °F -  
Max Temperature 32 °F 32 °F 66 °F (2008)
Min Temperature 24 °F 19 °F -11 °F (2014)
Degree Days  
Heating Degree Days 37    
Moisture  
Dew Point 23 °F    
Average Humidity 80    
Maximum Humidity 89    
Minimum Humidity 64    
Precipitation  
Precipitation 0.00 in - - ()
Sea Level Pressure  
Sea Level Pressure 30.36 in    
Wind  
Wind Speed 8 mph (SW)    
Max Wind Speed 12 mph    
Max Gust Speed -    
Visibility 5 miles    
Events      
Averages and records for this station are not official NWS values.
T = Trace of Precipitation, MM = Missing Value Source: NWS Daily Summary

Daily Weather History Graph

Daily Weather History Graph

Search for Another Location

Airport or City:

Trip Planner

Search our weather history database for the weather conditions in past years. The results will help you decide how hot, cold, wet, or windy it might be!

Date:

Astronomy

Jan. 07, 2013 Rise Set
Actual Time 7:52 AM EST 5:16 PM EST
Civil Twilight 7:21 AM EST 5:46 PM EST
Nautical Twilight 6:47 AM EST 6:21 PM EST
Astronomical Twilight 6:14 AM EST 6:54 PM EST
Moon 3:13 AM EST (1/7) 1:26 PM EST (1/7)
Length of Visible Light 10h 25m
Length of Day
9h 24m
Waning Crescent, 23% of the Moon is Illuminated
Jan 7
Waning Crescent
Jan 11
New
Jan 18
First Quarter
Jan 26
Full
Feb 3
Last Quarter

Hourly Weather History & Observations

Time (EST) Temp. Windchill Dew Point Humidity Pressure Visibility Wind Dir Wind Speed Gust Speed Precip Events Conditions
12:56 AM 27.0 °F 17.3 °F 24.1 °F 89% 30.30 in 4.0 mi West 10.4 mph - N/A   Overcast
1:56 AM 27.0 °F 18.7 °F 24.1 °F 89% 30.32 in 4.0 mi West 8.1 mph - N/A   Overcast
2:12 AM 28.4 °F 20.4 °F 24.8 °F 86% 30.29 in 4.0 mi West 8.1 mph - N/A   Overcast
2:39 AM 28.4 °F 21.2 °F 24.8 °F 86% 30.29 in 4.0 mi West 6.9 mph - N/A   Overcast
2:56 AM 28.0 °F 21.7 °F 24.1 °F 85% 30.34 in 4.0 mi WNW 5.8 mph - N/A   Overcast
3:45 AM 28.4 °F 22.2 °F 24.8 °F 86% 30.31 in 4.0 mi West 5.8 mph - N/A   Overcast
3:56 AM 28.0 °F 21.7 °F 24.1 °F 85% 30.35 in 4.0 mi West 5.8 mph - N/A   Overcast
4:56 AM 28.0 °F 21.7 °F 24.1 °F 85% 30.38 in 4.0 mi WSW 5.8 mph - N/A   Overcast
5:56 AM 28.0 °F 22.8 °F 24.1 °F 85% 30.38 in 4.0 mi WSW 4.6 mph - N/A   Overcast
6:56 AM 28.0 °F 21.7 °F 24.1 °F 85% 30.40 in 4.0 mi WSW 5.8 mph - N/A   Overcast
7:56 AM 28.0 °F 22.8 °F 24.1 °F 85% 30.43 in 4.0 mi WSW 4.6 mph - N/A   Overcast
8:09 AM 28.4 °F 24.6 °F 24.8 °F 86% 30.38 in 2.5 mi SSW 3.5 mph - N/A   Overcast
8:56 AM 28.0 °F 21.7 °F 24.1 °F 85% 30.45 in 2.5 mi WSW 5.8 mph - N/A   Overcast
9:04 AM 28.4 °F 23.3 °F 24.8 °F 86% 30.41 in 3.0 mi WSW 4.6 mph - N/A   Overcast
10:56 AM 30.0 °F 23.2 °F 25.0 °F 82% 30.48 in 4.0 mi SW 6.9 mph - N/A   Haze
11:56 AM 32.0 °F 24.2 °F 24.1 °F 73% 30.44 in 6.0 mi SSW 9.2 mph - N/A   Haze
12:45 PM 32.0 °F 23.6 °F 21.2 °F 64% 30.37 in 8.0 mi SW 10.4 mph - N/A   Scattered Clouds
12:56 PM 30.9 °F 21.7 °F 23.0 °F 72% 30.41 in 8.0 mi SW 11.5 mph - N/A   Partly Cloudy
1:56 PM 32.0 °F 23.0 °F 23.0 °F 69% 30.40 in 7.0 mi WSW 11.5 mph - N/A   Partly Cloudy
2:56 PM 32.0 °F 23.6 °F 23.0 °F 69% 30.38 in 8.0 mi SSW 10.4 mph - N/A   Clear
3:56 PM 32.0 °F 24.2 °F 23.0 °F 69% 30.36 in 7.0 mi South 9.2 mph - N/A   Clear
4:56 PM 30.9 °F 22.2 °F 21.9 °F 69% 30.35 in 7.0 mi South 10.4 mph - N/A   Clear
5:56 PM 28.9 °F 19.8 °F 21.0 °F 72% 30.35 in 8.0 mi South 10.4 mph - N/A   Clear
6:56 PM 26.1 °F 16.8 °F 19.9 °F 78% 30.34 in 7.0 mi South 9.2 mph - N/A   Clear
7:56 PM 26.1 °F 16.8 °F 19.9 °F 78% 30.33 in 6.0 mi South 9.2 mph - N/A   Haze
8:56 PM 24.1 °F 16.0 °F 19.0 °F 81% 30.33 in 6.0 mi South 6.9 mph - N/A   Haze
9:56 PM 25.0 °F 17.1 °F 19.9 °F 81% 30.31 in 6.0 mi South 6.9 mph - N/A   Haze
10:56 PM 24.1 °F 15.2 °F 19.9 °F 84% 30.27 in 6.0 mi SSE 8.1 mph - N/A   Clear
11:56 PM 25.0 °F 14.2 °F 21.0 °F 85% 30.26 in 5.0 mi South 11.5 mph - N/A   Clear